WZZ7LN EPWA-LIRN

Flight info

Callsign WZZ7LN
Flight time N/A
Altitude 36000
Route EVINA DCT KUKAM DCT BABKO DCT KOPRY DCT ZDA DCT ELGUS/N0435F370 DCT SUXUB DCT ERIKA
Aircraft A21N/M-SDE2E3FGHIRWXY/LB1

Departure

Time 2026-05-01 14:56
Airport Warsaw Chopin Airport (EPWA)

Arrival

Time N/A
Airport Naples International Airport (LIRN)
Time Latitude Longitude Altitude Speed Heading
2026-05-01 14:19 52.17507 20.96923 365 ft 0 kts 242°
2026-05-01 14:44 52.17513 20.96942 365 ft 2 kts 242°
2026-05-01 14:45 52.17520 20.96964 365 ft 2 kts 242°
2026-05-01 14:45 52.17533 20.97008 365 ft 2 kts 271°
2026-05-01 14:45 52.17529 20.97031 365 ft 2 kts 309°
2026-05-01 14:46 52.17523 20.97041 365 ft 1 kts 331°
2026-05-01 14:46 52.17517 20.97045 365 ft 0 kts 331°
2026-05-01 14:49 52.17519 20.97043 365 ft 1 kts 331°
2026-05-01 14:50 52.17551 20.97015 365 ft 6 kts 331°
2026-05-01 14:50 52.17607 20.96839 365 ft 12 kts 237°
2026-05-01 14:51 52.17560 20.96719 365 ft 12 kts 239°
2026-05-01 14:51 52.17459 20.96477 365 ft 12 kts 241°
2026-05-01 14:52 52.17314 20.96466 365 ft 14 kts 151°
2026-05-01 14:52 52.17213 20.96555 365 ft 16 kts 151°
2026-05-01 14:52 52.17008 20.96733 365 ft 16 kts 152°
2026-05-01 14:53 52.16903 20.96824 365 ft 16 kts 152°
2026-05-01 14:53 52.16799 20.96915 365 ft 17 kts 152°
2026-05-01 14:53 52.16695 20.97004 365 ft 16 kts 151°
2026-05-01 14:53 52.16633 20.97160 365 ft 16 kts 114°
2026-05-01 14:54 52.16586 20.97332 365 ft 16 kts 115°
2026-05-01 14:54 52.16536 20.97504 365 ft 16 kts 115°
2026-05-01 14:54 52.16487 20.97677 365 ft 15 kts 114°
2026-05-01 14:54 52.16442 20.97807 365 ft 9 kts 164°
2026-05-01 14:55 52.16376 20.97780 365 ft 10 kts 203°
2026-05-01 14:55 52.16316 20.97739 365 ft 6 kts 203°
2026-05-01 14:55 52.16305 20.97677 365 ft 6 kts 283°
2026-05-01 14:55 52.16326 20.97590 365 ft 13 kts 294°
2026-05-01 14:56 52.16459 20.97129 365 ft 82 kts 295°
2026-05-01 14:56 52.16796 20.95925 366 ft 146 kts 294°
2026-05-01 14:56 52.17262 20.94232 661 ft 171 kts 295°
2026-05-01 14:56 52.17731 20.92449 1328 ft 174 kts 297°
2026-05-01 14:57 52.18191 20.90678 2052 ft 176 kts 290°
2026-05-01 14:57 52.17613 20.86603 2761 ft 215 kts 225°
2026-05-01 14:57 52.16267 20.85355 3081 ft 232 kts 202°
2026-05-01 14:58 52.14684 20.84456 3337 ft 254 kts 198°
2026-05-01 14:58 52.12954 20.83521 3707 ft 272 kts 199°
2026-05-01 14:58 52.11128 20.82471 4228 ft 284 kts 200°
2026-05-01 14:58 52.09270 20.81342 4939 ft 288 kts 201°
2026-05-01 14:59 52.07399 20.80167 5668 ft 291 kts 201°
2026-05-01 14:59 52.05518 20.78963 6398 ft 295 kts 202°
2026-05-01 14:59 52.03611 20.77728 7130 ft 299 kts 202°
2026-05-01 14:59 52.01681 20.76472 7852 ft 304 kts 202°
2026-05-01 15:00 51.97716 20.73887 9232 ft 314 kts 201°
2026-05-01 15:00 51.95699 20.72574 9906 ft 318 kts 201°
2026-05-01 15:00 51.93623 20.71224 10559 ft 323 kts 201°
2026-05-01 15:01 51.91516 20.69856 10975 ft 337 kts 201°
2026-05-01 15:01 51.89298 20.68419 11346 ft 351 kts 201°
2026-05-01 15:01 51.87001 20.66930 11944 ft 356 kts 201°
2026-05-01 15:01 51.84713 20.65447 12578 ft 359 kts 201°
2026-05-01 15:02 51.82384 20.63940 13178 ft 364 kts 201°
2026-05-01 15:02 51.81610 20.63439 13374 ft 365 kts 201°
2026-05-01 15:02 51.77673 20.60894 14347 ft 371 kts 200°
2026-05-01 15:02 51.75263 20.59341 14941 ft 375 kts 201°
2026-05-01 15:03 51.72842 20.57780 15520 ft 378 kts 200°
2026-05-01 15:03 51.70396 20.56205 16070 ft 382 kts 200°
2026-05-01 15:03 51.67925 20.54615 16601 ft 386 kts 200°
2026-05-01 15:03 51.65437 20.53020 17123 ft 390 kts 200°
2026-05-01 15:04 51.62896 20.51388 17667 ft 393 kts 200°
2026-05-01 15:04 51.60362 20.49766 18189 ft 396 kts 200°
2026-05-01 15:04 51.57778 20.48111 18675 ft 400 kts 200°
2026-05-01 15:04 51.55190 20.46455 19184 ft 403 kts 200°
2026-05-01 15:05 51.52617 20.44814 19680 ft 406 kts 200°
2026-05-01 15:05 51.49995 20.43142 20171 ft 409 kts 200°
2026-05-01 15:05 51.47351 20.41458 20647 ft 412 kts 200°
2026-05-01 15:05 51.44671 20.39755 21109 ft 415 kts 200°
2026-05-01 15:06 51.41978 20.38043 21556 ft 418 kts 200°
2026-05-01 15:06 51.39279 20.36340 22001 ft 420 kts 199°
2026-05-01 15:06 51.36522 20.34811 22438 ft 422 kts 195°
2026-05-01 15:06 51.33723 20.33349 22860 ft 425 kts 194°
2026-05-01 15:07 51.30924 20.31904 23260 ft 428 kts 194°
2026-05-01 15:07 51.28085 20.30442 23658 ft 431 kts 194°
2026-05-01 15:07 51.25227 20.28966 24091 ft 433 kts 194°
2026-05-01 15:07 51.22353 20.27479 24505 ft 436 kts 194°
2026-05-01 15:08 51.19461 20.25984 24899 ft 438 kts 194°
2026-05-01 15:08 51.16567 20.24490 25270 ft 441 kts 194°
2026-05-01 15:08 51.13639 20.22979 25653 ft 444 kts 194°
2026-05-01 15:08 51.10732 20.21481 26005 ft 447 kts 194°
2026-05-01 15:09 51.07770 20.19957 26364 ft 449 kts 194°
2026-05-01 15:09 51.04794 20.18426 26729 ft 451 kts 194°
2026-05-01 15:09 51.01819 20.16897 27140 ft 452 kts 194°
2026-05-01 15:09 50.98933 20.15417 27613 ft 450 kts 194°
2026-05-01 15:10 50.95929 20.13881 27971 ft 452 kts 194°
2026-05-01 15:10 50.89932 20.10817 28618 ft 457 kts 194°
2026-05-01 15:10 50.86906 20.09272 28925 ft 460 kts 194°
2026-05-01 15:11 50.83861 20.07721 29219 ft 462 kts 194°
2026-05-01 15:11 50.77702 20.04592 29846 ft 466 kts 194°
2026-05-01 15:11 50.74639 20.03042 30150 ft 467 kts 194°
2026-05-01 15:12 50.71567 20.01488 30435 ft 470 kts 194°
2026-05-01 15:12 50.65300 19.98325 30955 ft 474 kts 194°
2026-05-01 15:12 50.62148 19.96736 31217 ft 476 kts 194°
2026-05-01 15:13 50.52612 19.91944 31979 ft 481 kts 194°
2026-05-01 15:14 50.46237 19.88751 32439 ft 485 kts 194°
2026-05-01 15:14 50.43022 19.87143 32683 ft 487 kts 194°
2026-05-01 15:14 50.36565 19.83919 33129 ft 490 kts 194°
2026-05-01 15:15 50.30074 19.80690 33549 ft 494 kts 195°
2026-05-01 15:15 50.23525 19.77444 33968 ft 497 kts 195°
2026-05-01 15:16 50.16944 19.74186 34455 ft 497 kts 195°
2026-05-01 15:16 50.10367 19.70940 34917 ft 498 kts 195°
2026-05-01 15:17 50.03797 19.67707 35332 ft 499 kts 195°
2026-05-01 15:18 49.93838 19.62827 35900 ft 502 kts 195°
2026-05-01 15:18 49.90508 19.61201 36103 ft 502 kts 195°
2026-05-01 15:19 49.80529 19.56336 36263 ft 502 kts 195°
2026-05-01 15:19 49.70556 19.51493 36263 ft 502 kts 195°
2026-05-01 15:20 49.60678 19.46329 36266 ft 503 kts 202°
2026-05-01 15:21 49.54387 19.41633 36271 ft 504 kts 207°
2026-05-01 15:21 49.48197 19.36662 36271 ft 504 kts 207°
2026-05-01 15:22 49.38899 19.29247 36266 ft 504 kts 206°
2026-05-01 15:22 49.32700 19.24335 36268 ft 504 kts 206°
2026-05-01 15:23 49.26465 19.19417 36272 ft 504 kts 206°
2026-05-01 15:23 49.20246 19.14520 36275 ft 504 kts 206°
2026-05-01 15:24 49.14023 19.09641 36277 ft 504 kts 206°
2026-05-01 15:24 49.07818 19.04790 36280 ft 504 kts 206°
2026-05-01 15:25 49.01612 18.99944 36282 ft 504 kts 206°
2026-05-01 15:25 48.95388 18.95099 36278 ft 504 kts 206°
2026-05-01 15:26 48.89162 18.90271 36266 ft 504 kts 206°
2026-05-01 15:26 48.82890 18.85421 36264 ft 504 kts 206°
2026-05-01 15:27 48.76655 18.80613 36270 ft 504 kts 206°
2026-05-01 15:28 48.67418 18.73510 36276 ft 505 kts 206°
2026-05-01 15:28 48.61150 18.68707 36278 ft 506 kts 206°
2026-05-01 15:29 48.51772 18.61548 36275 ft 505 kts 206°
2026-05-01 15:30 48.39232 18.52021 36269 ft 506 kts 206°
2026-05-01 15:31 48.20444 18.37850 36268 ft 506 kts 206°
2026-05-01 15:32 48.07844 18.28404 36267 ft 507 kts 205°
2026-05-01 15:34 47.88953 18.14350 36258 ft 506 kts 205°